Hutchinson, MN

1:39 PM CDT on May 27, 2017 (GMT -0500)
Hutchinson Municipal-Butler

Weather History for KHCD - August, 2014

Change the Weather History Date:

Monday, August 4, 2014

  Actual Average Record
Temperature  
Mean Temperature 70 °F -  
Max Temperature 79 °F 82 °F 97 °F (1959)
Min Temperature 61 °F 58 °F 42 °F (1978)
Cooling Degree Days 5    
Growing Degree Days 20 (Base 50)    
Moisture  
Dew Point 62 °F    
Average Humidity 76    
Maximum Humidity 96    
Minimum Humidity 51    
Precipitation  
Precipitation 0.00 in - - ()
Sea Level Pressure  
Sea Level Pressure 30.09 in    
Wind  
Wind Speed 5 mph (North)    
Max Wind Speed 9 mph    
Max Gust Speed 16 mph    
Visibility 10 miles    
Events      
Averages and records for this station are not official NWS values.
T = Trace of Precipitation, MM = Missing Value Source: NWS Daily Summary

Daily Weather History Graph

Daily Weather History Graph

Search for Another Location

Airport or City:

Trip Planner

Search our weather history database for the weather conditions in past years. The results will help you decide how hot, cold, wet, or windy it might be!

Date:

Astronomy

Aug. 04, 2014 Rise Set
Actual Time 6:06 AM CDT 8:39 PM CDT
Civil Twilight 5:33 AM CDT 9:12 PM CDT
Nautical Twilight 4:51 AM CDT 9:54 PM CDT
Astronomical Twilight 4:04 AM CDT 10:41 PM CDT
Moon 2:51 PM CDT (8/4) 12:16 AM CDT (8/4)
Length of Visible Light 15h 39m
Length of Day
14h 33m
First Quarter, 57% of the Moon is Illuminated
Aug 4
First Quarter
Aug 10
Full
Aug 17
Last Quarter
Aug 25
New
Sep 2
First Quarter

Hourly Weather History & Observations

Time (CDT) Temp. Dew Point Humidity Pressure Visibility Wind Dir Wind Speed Gust Speed Precip Events Conditions
12:12 AM 71.1 °F 65.1 °F 81% 30.09 in 10.0 mi NNE 3.5 mph - N/A   Clear
12:33 AM 70.7 °F 64.8 °F 81% 30.08 in 10.0 mi NE 3.5 mph - N/A   Clear
12:53 AM 69.3 °F 64.8 °F 86% 30.08 in 10.0 mi North 3.5 mph - N/A   Clear
1:12 AM 69.1 °F 65.1 °F 87% 30.08 in 10.0 mi NNE 3.5 mph - N/A   Clear
1:33 AM 68.4 °F 65.3 °F 90% 30.08 in 10.0 mi NNW 3.5 mph - N/A   Clear
1:53 AM 68.4 °F 65.3 °F 90% 30.08 in 10.0 mi Calm Calm - N/A   Clear
2:12 AM 68.2 °F 65.5 °F 91% 30.07 in 10.0 mi Calm Calm - N/A   Clear
2:32 AM 68.9 °F 65.7 °F 89% 30.07 in 10.0 mi North 3.5 mph - N/A   Clear
2:52 AM 69.4 °F 66.2 °F 89% 30.07 in 10.0 mi North 3.5 mph - N/A   Clear
3:13 AM 69.4 °F 65.8 °F 88% 30.07 in 10.0 mi NNE 4.6 mph - N/A   Clear
3:33 AM 69.1 °F 66.0 °F 90% 30.07 in 10.0 mi NNE 4.6 mph - N/A   Clear
3:53 AM 68.9 °F 65.8 °F 90% 30.07 in 10.0 mi NNE 5.8 mph - N/A   Clear
4:13 AM 68.2 °F 65.7 °F 92% 30.07 in 10.0 mi NNE 5.8 mph - N/A   Clear
4:32 AM 67.6 °F 65.5 °F 93% 30.07 in 10.0 mi NNE 4.6 mph - N/A   Clear
4:53 AM 67.1 °F 65.3 °F 94% 30.07 in 10.0 mi NNE 4.6 mph - N/A   Clear
5:13 AM 67.1 °F 65.3 °F 94% 30.07 in 10.0 mi NNE 5.8 mph - N/A   Clear
5:33 AM 66.7 °F 65.1 °F 95% 30.07 in 10.0 mi NNE 4.6 mph - N/A   Scattered Clouds
5:52 AM 66.7 °F 65.1 °F 95% 30.07 in 10.0 mi NNE 3.5 mph - N/A   Scattered Clouds
6:13 AM 66.4 °F 64.8 °F 95% 30.08 in 10.0 mi North 3.5 mph - N/A   Clear
6:32 AM 66.2 °F 64.8 °F 95% 30.09 in 7.0 mi North 3.5 mph - N/A   Clear
6:53 AM 66.4 °F 65.1 °F 96% 30.09 in 7.0 mi North 4.6 mph - N/A   Clear
7:13 AM 66.7 °F 65.3 °F 95% 30.10 in 10.0 mi North 4.6 mph - N/A   Mostly Cloudy
7:33 AM 67.1 °F 65.1 °F 93% 30.10 in 10.0 mi North 3.5 mph - N/A   Overcast
7:53 AM 67.3 °F 65.1 °F 93% 30.10 in 10.0 mi North 4.6 mph - N/A   Scattered Clouds
8:13 AM 68.2 °F 65.1 °F 90% 30.10 in 10.0 mi North 5.8 mph - N/A   Mostly Cloudy
8:32 AM 68.0 °F 64.6 °F 89% 30.11 in 10.0 mi North 5.8 mph - N/A   Mostly Cloudy
8:53 AM 68.0 °F 64.6 °F 89% 30.11 in 10.0 mi North 4.6 mph - N/A   Mostly Cloudy
9:13 AM 68.5 °F 64.6 °F 87% 30.11 in 10.0 mi North 6.9 mph - N/A   Mostly Cloudy
9:32 AM 69.4 °F 64.9 °F 86% 30.11 in 10.0 mi North 5.8 mph - N/A   Scattered Clouds
9:53 AM 69.8 °F 64.6 °F 83% 30.11 in 10.0 mi North 4.6 mph - N/A   Scattered Clouds
10:13 AM 70.7 °F 64.9 °F 82% 30.11 in 10.0 mi NNE 6.9 mph - N/A   Mostly Cloudy
10:33 AM 71.4 °F 64.9 °F 80% 30.11 in 10.0 mi North 4.6 mph - N/A   Scattered Clouds
10:53 AM 72.7 °F 64.9 °F 77% 30.11 in 10.0 mi North 4.6 mph - N/A   Mostly Cloudy
11:13 AM 72.3 °F 64.6 °F 77% 30.11 in 10.0 mi NNW 5.8 mph - N/A   Scattered Clouds
11:33 AM 73.4 °F 64.8 °F 74% 30.11 in 10.0 mi North 5.8 mph - N/A   Scattered Clouds
11:52 AM 73.9 °F 64.4 °F 72% 30.11 in 10.0 mi NE 8.1 mph - N/A   Scattered Clouds
12:13 PM 74.8 °F 64.4 °F 70% 30.11 in 10.0 mi NNE 5.8 mph - N/A   Clear
12:32 PM 76.1 °F 64.6 °F 67% 30.11 in 10.0 mi North 6.9 mph - N/A   Scattered Clouds
12:53 PM 77.2 °F 64.6 °F 65% 30.10 in 10.0 mi NE 9.2 mph - N/A   Clear
1:13 PM 77.4 °F 64.4 °F 64% 30.09 in 10.0 mi North 6.9 mph - N/A   Clear
1:33 PM 78.3 °F 64.2 °F 62% 30.09 in 10.0 mi NNW 5.8 mph - N/A   Scattered Clouds
1:53 PM 78.8 °F 63.9 °F 60% 30.08 in 10.0 mi North 8.1 mph - N/A   Scattered Clouds
2:12 PM 78.8 °F 63.5 °F 59% 30.08 in 10.0 mi North 5.8 mph - N/A   Clear
2:33 PM 78.8 °F 62.4 °F 57% 30.07 in 10.0 mi NW 5.8 mph - N/A   Clear
2:53 PM 79.7 °F 60.1 °F 51% 30.07 in 10.0 mi North 6.9 mph - N/A   Clear
3:12 PM 79.7 °F 61.0 °F 53% 30.07 in 10.0 mi NNW 6.9 mph 16.1 mph N/A   Clear
3:33 PM 78.6 °F 60.4 °F 54% 30.07 in 10.0 mi NNW 6.9 mph 16.1 mph N/A   Clear
3:53 PM 77.9 °F 60.8 °F 56% 30.07 in 10.0 mi NNW 6.9 mph - N/A   Clear
4:13 PM 78.1 °F 60.3 °F 54% 30.07 in 10.0 mi North 6.9 mph - N/A   Clear
4:32 PM 77.7 °F 60.8 °F 56% 30.07 in 10.0 mi North 9.2 mph - N/A   Clear
4:53 PM 78.8 °F 60.1 °F 53% 30.07 in 10.0 mi North 4.6 mph - N/A   Clear
5:12 PM 77.4 °F 60.3 °F 55% 30.07 in 10.0 mi NW 6.9 mph - N/A   Clear
5:33 PM 77.0 °F 58.3 °F 52% 30.07 in 10.0 mi North 6.9 mph - N/A   Clear
5:52 PM 77.5 °F 58.1 °F 51% 30.07 in 10.0 mi NNW 8.1 mph - N/A   Clear
6:13 PM 76.5 °F 57.9 °F 53% 30.07 in 10.0 mi North 8.1 mph - N/A   Clear
6:32 PM 75.4 °F 57.7 °F 54% 30.07 in 10.0 mi NNW 8.1 mph - N/A   Clear
6:52 PM 75.9 °F 57.2 °F 52% 30.07 in 10.0 mi NNW 9.2 mph - N/A   Clear
7:12 PM 75.0 °F 57.0 °F 53% 30.07 in 10.0 mi NNW 9.2 mph - N/A   Clear
7:33 PM 74.7 °F 56.5 °F 53% 30.08 in 10.0 mi NNW 5.8 mph - N/A   Clear
7:53 PM 72.1 °F 56.5 °F 58% 30.07 in 10.0 mi NNW 6.9 mph - N/A   Clear
8:05 PM 71.8 °F 57.0 °F 60% 30.07 in 10.0 mi NNW 5.8 mph - N/A   Clear
8:33 PM 66.9 °F 58.3 °F 74% 30.08 in 10.0 mi NW 5.8 mph - N/A   Clear
8:52 PM 65.3 °F 58.1 °F 77% 30.08 in 10.0 mi WNW 3.5 mph - N/A   Clear
9:13 PM 64.9 °F 58.1 °F 78% 30.09 in 10.0 mi NW 3.5 mph - N/A   Clear
9:32 PM 63.1 °F 57.7 °F 83% 30.09 in 10.0 mi NNW 5.8 mph - N/A   Clear
9:53 PM 62.6 °F 58.1 °F 85% 30.09 in 10.0 mi NNW 4.6 mph - N/A   Clear
10:33 PM 62.6 °F 58.1 °F 85% 30.10 in 10.0 mi NNW 3.5 mph - N/A   Clear
10:53 PM 62.6 °F 57.7 °F 84% 30.10 in 10.0 mi Calm Calm - N/A   Clear
11:13 PM 61.7 °F 58.3 °F 89% 30.10 in 10.0 mi Calm Calm - N/A   Clear
11:33 PM 62.8 °F 58.5 °F 86% 30.10 in 10.0 mi Calm Calm - N/A   Clear
11:52 PM 63.3 °F 58.1 °F 83% 30.10 in 10.0 mi Calm Calm - N/A   Clear